TimeGMT,TemperatureF,Dew PointF,Humidity,Sea Level PressureIn,VisibilityMPH,Wind Direction,Wind SpeedMPH,Gust SpeedMPH,PrecipitationIn,Events,Conditions,WindDirDegrees,DateUTC
12:20 AM,32.0,28.4,87,30.30,6.2,Variable,2.3,-,N/A,Snow,Light Snow,0,2013-02-23 00:20:00
12:50 AM,32.0,28.4,87,30.30,6.2,WSW,3.5,-,N/A,Snow,Light Snow,240,2013-02-23 00:50:00
1:20 AM,32.0,28.4,87,30.27,6.2,WSW,3.5,-,N/A,Snow,Light Snow,250,2013-02-23 01:20:00
1:50 AM,32.0,28.4,87,30.27,6.2,WSW,3.5,-,N/A,Snow,Light Snow,250,2013-02-23 01:50:00
2:20 AM,32.0,28.4,87,30.27,6.2,WSW,3.5,-,N/A,Snow,Light Snow,250,2013-02-23 02:20:00
2:50 AM,32.0,28.4,87,30.27,6.2,SW,4.6,-,N/A,Snow,Light Snow,230,2013-02-23 02:50:00
3:20 AM,32.0,28.4,87,30.27,6.2,Calm,Calm,-,N/A,,Overcast,0,2013-02-23 03:20:00
3:50 AM,32.0,28.4,87,30.27,6.2,Calm,Calm,-,N/A,,Overcast,0,2013-02-23 03:50:00
4:20 AM,32.0,28.4,87,30.27,6.2,WSW,2.3,-,N/A,,Overcast,240,2013-02-23 04:20:00
4:50 AM,32.0,28.4,87,30.27,6.2,WSW,3.5,-,N/A,,Overcast,240,2013-02-23 04:50:00
5:20 AM,32.0,28.4,87,30.27,6.2,WSW,3.5,-,N/A,,Overcast,250,2013-02-23 05:20:00
5:50 AM,32.0,28.4,87,30.27,6.2,West,3.5,-,N/A,,Overcast,260,2013-02-23 05:50:00
6:20 AM,30.2,28.4,93,30.27,6.2,WSW,3.5,-,N/A,,Overcast,240,2013-02-23 06:20:00
6:50 AM,32.0,28.4,87,30.27,6.2,WSW,3.5,-,N/A,,Mostly Cloudy,240,2013-02-23 06:50:00
7:20 AM,32.0,28.4,87,30.27,6.2,West,3.5,-,N/A,,Mostly Cloudy,260,2013-02-23 07:20:00
7:50 AM,32.0,28.4,87,30.27,6.2,West,3.5,-,N/A,,Mostly Cloudy,260,2013-02-23 07:50:00
8:20 AM,32.0,28.4,87,30.30,6.2,Calm,Calm,-,N/A,,Mostly Cloudy,0,2013-02-23 08:20:00
8:50 AM,32.0,30.2,93,30.30,6.2,West,3.5,-,N/A,,Mostly Cloudy,270,2013-02-23 08:50:00
9:20 AM,33.8,28.4,81,30.30,-9999.0,Calm,Calm,-,N/A,,Clear,0,2013-02-23 09:20:00
9:50 AM,33.8,28.4,81,30.30,-9999.0,Calm,Calm,-,N/A,,Clear,0,2013-02-23 09:50:00
10:20 AM,35.6,28.4,75,30.30,-9999.0,North,5.8,-,N/A,,Clear,360,2013-02-23 10:20:00
10:50 AM,37.4,24.8,60,30.30,-9999.0,Variable,2.3,-,N/A,,Clear,0,2013-02-23 10:50:00
11:20 AM,37.4,24.8,60,30.30,-9999.0,NNE,5.8,-,N/A,,Clear,30,2013-02-23 11:20:00
11:50 AM,37.4,24.8,60,30.30,-9999.0,ENE,5.8,-,N/A,,Clear,70,2013-02-23 11:50:00
12:20 PM,37.4,24.8,60,30.30,-9999.0,NE,5.8,-,N/A,,Clear,40,2013-02-23 12:20:00
12:50 PM,39.2,24.8,56,30.30,-9999.0,ENE,6.9,-,N/A,,Clear,60,2013-02-23 12:50:00
1:20 PM,39.2,24.8,56,30.30,6.2,NE,6.9,-,N/A,,Partly Cloudy,50,2013-02-23 13:20:00
1:50 PM,39.2,23.0,52,30.30,6.2,ENE,5.8,-,N/A,,Partly Cloudy,60,2013-02-23 13:50:00
2:20 PM,39.2,24.8,56,30.30,6.2,ENE,6.9,-,N/A,,Partly Cloudy,60,2013-02-23 14:20:00
2:50 PM,39.2,26.6,61,30.30,6.2,ENE,6.9,-,N/A,,Partly Cloudy,70,2013-02-23 14:50:00
3:20 PM,39.2,28.4,65,30.30,6.2,ENE,6.9,-,N/A,,Scattered Clouds,70,2013-02-23 15:20:00
3:50 PM,37.4,28.4,70,30.30,6.2,NE,3.5,-,N/A,,Scattered Clouds,50,2013-02-23 15:50:00
4:20 PM,39.2,28.4,65,30.30,6.2,NE,5.8,-,N/A,,Mostly Cloudy,50,2013-02-23 16:20:00
4:50 PM,37.4,30.2,75,30.30,6.2,NNE,4.6,-,N/A,,Mostly Cloudy,20,2013-02-23 16:50:00
5:20 PM,37.4,32.0,81,30.30,6.2,NNE,6.9,-,N/A,,Mostly Cloudy,30,2013-02-23 17:20:00
5:50 PM,35.6,32.0,87,30.30,6.2,NNE,4.6,-,N/A,,Mostly Cloudy,20,2013-02-23 17:50:00
6:20 PM,35.6,32.0,87,30.30,6.2,North,4.6,-,N/A,,Scattered Clouds,360,2013-02-23 18:20:00
6:50 PM,35.6,32.0,87,30.33,6.2,ENE,6.9,-,N/A,,Scattered Clouds,60,2013-02-23 18:50:00
7:20 PM,35.6,32.0,87,30.33,6.2,ENE,8.1,-,N/A,,Mostly Cloudy,70,2013-02-23 19:20:00
7:50 PM,33.8,30.2,87,30.36,6.2,ESE,4.6,-,N/A,,Partly Cloudy,110,2013-02-23 19:50:00
8:20 PM,33.8,30.2,87,30.36,6.2,East,2.3,-,N/A,,Partly Cloudy,90,2013-02-23 20:20:00
8:50 PM,33.8,30.2,87,30.36,6.2,ESE,3.5,-,N/A,,Partly Cloudy,110,2013-02-23 20:50:00
9:20 PM,33.8,28.4,81,30.36,6.2,Calm,Calm,-,N/A,,Scattered Clouds,0,2013-02-23 21:20:00
9:50 PM,33.8,30.2,87,30.39,6.2,North,2.3,-,N/A,,Partly Cloudy,10,2013-02-23 21:50:00
10:20 PM,33.8,30.2,87,30.39,6.2,ENE,2.3,-,N/A,,Scattered Clouds,60,2013-02-23 22:20:00
10:50 PM,33.8,30.2,87,30.39,6.2,North,2.3,-,N/A,,Mostly Cloudy,10,2013-02-23 22:50:00
11:20 PM,33.8,30.2,87,30.39,6.2,Variable,2.3,-,N/A,,Mostly Cloudy,0,2013-02-23 23:20:00
11:50 PM,33.8,30.2,87,30.39,6.2,Calm,Calm,-,N/A,,Mostly Cloudy,0,2013-02-23 23:50:00